Powrót do katalogu

SL-14 R/B

AktywnyPO
NORAD 15332·ROCKET BODY·🇷🇺 Russia

Wystrzelony Sep 28, 1984 z Plesetsk Cosmodrome

Loading…

Następne Przeloty (najbliższe 24 godziny)

TLE

ŚwieżeSource: Space-Track

Epoka: Sep 14, 2026, 07:44 UTC

1 15332U 84105B   26257.32252410  .00000295  00000-0  30870-4 0  9991
2 15332  82.5299 268.5056 0020706  28.6039 342.0446 14.85974749246234

Śledź SL-14 R/B w czasie rzeczywistym z AllMySat

Download on the App Store